Regional Weather Roundup
Issued by NWS Midland/Odessa, TX

Skip options and go directly to product.
Home | Oldest Version | Next Version | Current Version | All | Text Only | Save Text | Print | Product List | Glossary On

Skip product version selection by date and time.   
021
ASUS44 KMAF 040101
RWRMAF
MIDLAND AREA WEATHER ROUNDUP
NATIONAL WEATHER SERVICE MIDLAND TX
800 PM CDT TUE MAY 03 2016

...IN SOUTHWEST TEXAS AND SOUTHEAST NEW MEXICO...

CITY           SKY/WX    TMP DP  RH WIND       PRES   REMARKS
ALPINE         PTCLDY    77  35  21 NE17G24   30.12R
ANDREWS        CLOUDY    72  42  33 NE12G20   30.07R
ARTESIA        CLEAR     75  36  23 N17       30.09R
BIG SPRING     MOCLDY    70  46  41 NE15      30.07R
CARLSBAD       CLEAR     77  33  20 N20       30.05R
DRYDEN           N/A     78  47  33 E14       30.00R
FORT STOCKTON  PTCLDY    78  37  22 NE8       30.03R
GUAD PASS      NOT AVBL
HOBBS            N/A     72  34  25 N15       30.10R
MARFA          PTCLDY    73  33  23 NE16      30.10R
MIDLAND AIRPK  CLOUDY    77  40  27 NE21G26   30.04R
MIDLAND INTL   LGT RAIN  76  41  28 NE22G32   30.04R
ODESSA         CLEAR     80  32  17 N15       30.05R
PECOS          CLEAR     82  32  16 NE9       30.00R
PRESIDIO       FAIR      86  36  17 MISG      29.92S
SEMINOLE       PTCLDY    69  41  35 NE14      30.10R
SNYDER           N/A     62  53  73 NE13G18   30.09R
WINK           CLEAR     81  32  17 NE3       30.01R
$$
...OTHER STATIONS IN TEXAS...

CITY           SKY/WX    TMP DP  RH WIND       PRES   REMARKS
ABILENE        LGT RAIN  60  56  86 E9        30.09R FOG
AMARILLO       CLEAR     64  35  34 N15       30.12R
AUSTIN         CLEAR     70  50  49 NE8       30.01R
BROWNSVILLE    CLOUDY    71  61  70 NE8       29.99R
CORPUS CHRISTI PTCLDY    75  53  46 E7        29.98R
DALLAS FTW     PTCLDY    67  45  45 NE5       30.04R
DEL RIO        CLEAR     77  55  46 SE8       29.97R
EL PASO        PTCLDY    81  26  13 N8        30.03S
HOUSTON INT    CLEAR     69  50  50 N7        29.98R
LUBBOCK        PTCLDY    63  47  55 CALM      30.10R
SAN ANGELO     CLEAR     75  45  34 CALM      30.02S
SAN ANTONIO    CLEAR     71  49  45 E9        30.01R
WACO           CLEAR     67  50  54 N7        30.04R
WICHITA FALLS  NOT AVBL
$$
...OTHER LOCATIONS IN NEW MEXICO...

CITY           SKY/WX    TMP DP  RH WIND       PRES   REMARKS
ALAMAGORDO     CLEAR     77  23  13 NW7       30.08R
ALBUQUERQUE    PTCLDY    72  23  16 VRB7      30.15S
CANNON AFB     CLEAR     69  24  18 N14G20    30.14R
CLOVIS         CLEAR     66  27  22 N17       30.16R
HOLLOMAN AFB   CLEAR     78  22  12 NW7       30.06R
ROSWELL        CLEAR     75  33  21 NE13      30.09S
RUIDOSO          N/A     61  28  29 N5        30.26R
SANTA FE       MOCLDY    66  29  24 SE13      30.20S
TRUTH OR CONSE PTCLDY    73  28  18 NE5       30.11R
TUCUMCARI      CLEAR     71  22  15 N13       30.12S
$$

USA.gov is the U.S. government's official web portal to all federal, state and local government web resources and services.